Flag for U.S.A. Weather past 2 weeks in Roanoke, Virginia, U.S.A.

Now
68 °F

Low clouds.


Feels Like: 68 °F
Forecast: 65 / 75 °F
Wind: 6 mph from Southeast

Location: Roanoke Regional Airport

Current Time: Jul 3, 2015 at 9:17:59 AM

Latest Report: Jul 3, 2015 at 8:54 AM


Visibility: 7 mi

Pressure: 29.98 "Hg

Humidity: 90%

Dew point: 65 °F

Location of RoanokeLocation

Historic Weather in Roanoke — Graph

°F

Roanoke temperature yesterday

Maximum temperature yesterday: 76 °F (at 11:54 AM)
Minimum temperature yesterday: 68 °F (at 9:54 PM)
Average temperature yesterday: 73 °F

Past Weeks' High & Low Weather Summary

 TemperatureHumidityPressure
High92 °F (Jun 23, 4:54 PM)100% (Jun 27, 3:01 AM)30.12 "Hg (Jun 27, 3:01 AM)
Low56 °F (Jun 29, 5:54 AM)33% (Jun 24, 2:54 PM)29.73 "Hg (Jun 27, 5:54 PM)
Average76 °F70%29.96 "Hg
* Reported Jun 18 7:54 AM — Jul 3 7:54 AM, Roanoke, Weather by CustomWeather, © 2015

Note: Actual official high and low records may vary slightly from our data, if they occured in-between our weather recording intervals... More about our weather records

Advertising

Roanoke weather history for previous 24 hours

 ConditionsComfort  
Time TempWeatherWind HumidityBarometerVisibility
7:54 AM
Fri, Jul 3
68 °FFog.9 mph93%29.97 "Hg5 mi
6:54 AM68 °FFog.3 mph93%29.96 "Hg5 mi
5:54 AM68 °FFog.3 mph93%29.94 "Hg5 mi
4:54 AM68 °FFog.No wind93%29.94 "Hg5 mi
3:54 AM69 °FMostly cloudy.No wind87%29.93 "Hg7 mi
2:54 AM69 °FMostly cloudy.No wind87%29.93 "Hg7 mi
1:54 AM69 °FMostly cloudy.No wind84%29.94 "Hg8 mi
12:54 AM69 °FMostly cloudy.3 mph84%29.95 "Hg7 mi
11:54 PM
Thu, Jul 2
69 °FMostly cloudy.No wind84%29.95 "Hg7 mi
10:54 PM69 °FOvercast.No wind87%29.94 "Hg7 mi
9:54 PM68 °FPartly cloudy.No wind84%29.93 "Hg8 mi
8:54 PM72 °FBroken clouds.3 mph73%29.92 "Hg7 mi
7:54 PM73 °FPartly sunny.3 mph71%29.92 "Hg7 mi
6:54 PM75 °FOvercast.6 mph66%29.90 "Hg8 mi
5:54 PM74 °FBroken clouds.6 mph69%29.90 "Hg8 mi
4:54 PM73 °FMostly cloudy.6 mph66%29.91 "Hg6 mi
3:54 PM74 °FLight rain. Fog.6 mph69%29.92 "Hg6 mi
2:54 PM74 °FPartly sunny.7 mph67%29.93 "Hg8 mi
1:54 PM75 °FLight rain. Cloudy.8 mph64%29.92 "Hg8 mi
12:54 PM76 °FScattered clouds.10 mph62%29.92 "Hg10 mi
11:54 AM76 °FBroken clouds.7 mph69%29.93 "Hg10 mi
10:54 AM73 °FOvercast.6 mph76%29.92 "Hg9 mi
9:54 AM72 °FLight rain. More clouds than sun.8 mph78%29.92 "Hg7 mi
Weather by CustomWeather, © 2015

See weather overviewHow to use our weather pages